Tracking 18794 objects as of 22-September-2017
HD Live streaming from Space Station
objects crossing your sky now

BIRD BB

Track BIRD BB now!
10-day predictions
BIRD BB is classified as:


NORAD ID: 42823
Int'l Code: 1998-067MX
Perigee: 399.9 km
Apogee: 407.1 km
Inclination: 51.6 °
Period: 92.5 minutes
Semi major axis: 6774 km
RCS: Unknown
Launch date: November 20, 1998
Source: (BGD)
Launch site: TYURATAM MISSILE AND SPACE COMPLEX (TTMTR)
Uplink (MHz):
Downlink (MHz): 437.375
Beacon (MHz): 437.372
Mode: 1k2AFSK 9k6GMSK CW
Call sign: JG6YJS
Status: Active

aabbcc
Your satellite tracking list
Your tracking list is empty





NASA's NSSDC Master Catalog

Two Line Element Set (TLE):
1 42823U 98067MX  17264.54212791 +.00013799 +00000-0 +19391-3 0  9995
2 42823 051.6383 277.1292 0005335 275.1183 084.9200 15.56992120011858
Source of the keplerian elements: AFSPC